Weather History for Jonesville, VA

Change the Weather History Date:

Tuesday, October 4, 2011

  Actual Average (KLOZ) Record (KLOZ)
Temperature  
Mean Temperature 57 °F 61 °F  
Max Temperature 73 °F 73 °F 88 °F (1959)
Min Temperature 41 °F 49 °F 28 °F (1974)
Degree Days  
Heating Degree Days 8 5  
Month to date heating degree days 19  
Since 1 July heating degree days 66  
Cooling Degree Days 0 1  
Month to date cooling degree days 6  
Year to date cooling degree days 1173  
Growing Degree Days 7 (Base 50)    
Moisture  
Dew Point 45 °F    
Average Humidity 75    
Maximum Humidity 100    
Minimum Humidity 38    
Precipitation  
Precipitation 0.00 in 0.09 in 1.08 in (1995)
Month to date precipitation 0.38  
Year to date precipitation 36.43  
Sea Level Pressure  
Sea Level Pressure 30.29 in    
Wind  
Wind Speed 2 mph (NNW)    
Max Wind Speed 9 mph    
Max Gust Speed -    
Visibility 11 miles    
Events Rain    
T = Trace of Precipitation, MM = Missing Value Source: NWS Daily Summary

Daily Weather History Graph

Daily Weather History Graph

Search for Another Location

Airport:

Trip Planner

Search our weather history database for the weather conditions in past years. The results will help you decide how hot, cold, wet, or windy it might be!

Date:

Astronomy

Oct. 04, 2011 Rise Set
Actual Time 7:30 AM EDT 7:12 PM EDT
Civil Twilight 7:04 AM EDT 7:38 PM EDT
Nautical Twilight 6:34 AM EDT 8:07 PM EDT
Astronomical Twilight 6:04 AM EDT 8:38 PM EDT
Moon 3:03 PM EDT (10/4) 12:23 AM EDT (10/4)
Length of Visible Light 12h 33m
Length of Day
11h 41m
First Quarter, 56% of the Moon is Illuminated
Oct 4
First Quarter
Oct 11
Full
Oct 19
Last Quarter
Oct 26
New
Nov 2
First Quarter

Hourly Weather History & Observations

Time (EDT) Temp. Windchill Dew Point Humidity Pressure Visibility Wind Dir Wind Speed Gust Speed Precip Events Conditions
12:55 AM 50.0 °F - 46.4 °F 87% 30.25 in 10.0 mi Calm Calm - N/A   Overcast
1:35 AM - - 46.4 °F N/A% 30.24 in 10.0 mi Calm Calm - N/A   Overcast
2:35 AM - - - N/A% 30.25 in 10.0 mi North - - N/A   Overcast
2:55 AM 48.2 °F - 46.4 °F 93% - - Calm Calm - N/A   Overcast
3:35 AM - - - N/A% - - North - - N/A   Unknown
5:15 AM 41.0 °F - 41.0 °F 100% 30.26 in 18.0 mi North - - N/A   Unknown
5:35 AM 41.0 °F 35.2 °F 41.0 °F 100% - 10.0 mi North 9.2 mph - N/A   Clear
5:55 AM 42.8 °F - 41.0 °F 93% 30.27 in 10.0 mi Calm Calm - N/A   Clear
6:15 AM 41.0 °F - 39.2 °F 93% 30.28 in 10.0 mi Calm Calm - N/A   Clear
7:15 AM 41.0 °F - 39.2 °F 93% 30.29 in 10.0 mi North - - N/A   Clear
8:15 AM 42.8 °F - 41.0 °F 93% 30.32 in - Calm Calm - N/A   Clear
8:55 AM - - - N/A% 30.32 in 10.0 mi North - - N/A   Unknown
9:55 AM - - - N/A% 30.33 in 18.0 mi Calm Calm - N/A   Unknown
10:15 AM - - - N/A% 30.34 in 10.0 mi North - - N/A   Unknown
11:15 AM 59.0 °F - 42.8 °F 55% 30.34 in 10.0 mi WSW 3.5 mph - N/A   Clear
11:55 AM - - - N/A% 30.34 in 10.0 mi North - - N/A   Unknown
1:35 PM - - - N/A% - - North - - N/A   Unknown
2:15 PM 71.6 °F - 44.6 °F 38% 30.30 in 10.0 mi North 4.6 mph - N/A   Unknown
2:35 PM 71.6 °F - 44.6 °F 38% - 10.0 mi NW 3.5 mph - N/A Rain Light Rain
3:15 PM 71.6 °F - 46.4 °F 41% 30.29 in 10.0 mi North 4.6 mph - N/A   Clear
4:15 PM - - - N/A% 30.27 in 10.0 mi North 8.1 mph - N/A   Clear
4:35 PM 73.4 °F - 46.4 °F 38% 30.27 in - NNW 4.6 mph - N/A   Clear
5:15 PM - - - N/A% 30.26 in 10.0 mi North - - N/A   Unknown
5:35 PM - - - N/A% 30.26 in 10.0 mi North - - N/A   Unknown
5:55 PM 71.6 °F - 46.4 °F 41% 30.26 in 10.0 mi North - - N/A   Clear
7:15 PM 64.4 °F - 50.0 °F 59% 30.27 in 10.0 mi Calm Calm - N/A   Clear
8:55 PM 57.2 °F - 50.0 °F 77% 30.29 in 18.0 mi Calm Calm - N/A   Unknown
9:35 PM - - - N/A% - 10.0 mi Calm Calm - N/A   Clear
10:55 PM 50.0 °F - 48.2 °F 94% 30.30 in - Calm Calm - N/A   Clear
11:15 PM - - - N/A% 30.31 in 10.0 mi North - - N/A   Unknown
11:35 PM 48.2 °F - 46.4 °F 93% 30.31 in - Calm Calm - N/A   Clear
11:55 PM 48.2 °F - 46.4 °F 93% 30.31 in - Calm Calm - N/A   Clear